• In Hungary
  • List of Countries
  • For 7 days
  • Water Temperature
  • Satellite Maps
  • Weather Map
  • News
  • Weather Widgets
  • user-avatar
    Login

    Hourly Weather Altenburg

    Today, 24 January, Wednesday

    Time Temperature Precipitation Wind Pressure Humidity
    00:00 +2°C° 0 mm 6 mps 746 mmHg 86%
    01:00 +2°C° 0 mm 6 mps 746 mmHg 86%
    02:00 +3°C° 0.1 mm 6 mps 746 mmHg 87%
    03:00 +3°C° 0.1 mm 6 mps 746 mmHg 87%
    04:00 +4°C° 0.1 mm 6 mps 746 mmHg 88%
    05:00 +4°C° 0 mm 6 mps 745 mmHg 89%
    06:00 +4°C° 0 mm 6 mps 745 mmHg 89%
    07:00 +4°C° 0 mm 6 mps 745 mmHg 90%
    08:00 +4°C° 0 mm 6 mps 745 mmHg 89%
    09:00 +5°C° 0 mm 6 mps 746 mmHg 88%
    10:00 +7°C° 0 mm 6 mps 746 mmHg 86%
    11:00 +7°C° 0 mm 6 mps 746 mmHg 84%
    12:00 +8°C° 0 mm 6 mps 745 mmHg 83%
    13:00 +9°C° 0 mm 6 mps 745 mmHg 81%
    14:00 +8°C° 0 mm 6 mps 745 mmHg 82%
    15:00 +8°C° 0 mm 6 mps 744 mmHg 84%
    16:00 +8°C° 0 mm 5 mps 744 mmHg 86%
    17:00 +7°C° 0 mm 6 mps 744 mmHg 87%
    18:00 +7°C° 0 mm 6 mps 743 mmHg 88%
    19:00 +7°C° 0 mm 6 mps 743 mmHg 89%
    20:00 +5°C° 0 mm 6 mps 743 mmHg 86%
    21:00 +5°C° 0 mm 6 mps 743 mmHg 83%
    22:00 +5°C° 0 mm 6 mps 742 mmHg 80%
    23:00 +5°C° 0 mm 6 mps 742 mmHg 79%

    Tomorrow, 25 January, Thursday

    Time Temperature Precipitation Wind Pressure Humidity
    00:00 +5°C° 0 mm 6 mps 742 mmHg 78%
    01:00 +5°C° 0 mm 6 mps 742 mmHg 77%
    02:00 +5°C° 0 mm 6 mps 742 mmHg 78%
    03:00 +5°C° 0 mm 6 mps 741 mmHg 78%
    04:00 +5°C° 0 mm 6 mps 741 mmHg 79%
    05:00 +5°C° 0 mm 6 mps 741 mmHg 79%
    06:00 +5°C° 0 mm 6 mps 741 mmHg 78%
    07:00 +5°C° 0 mm 6 mps 741 mmHg 78%
    08:00 +5°C° 0 mm 6 mps 741 mmHg 77%
    09:00 +5°C° 0 mm 6 mps 741 mmHg 77%
    10:00 +7°C° 0 mm 6 mps 741 mmHg 76%
    11:00 +7°C° 0.1 mm 6 mps 741 mmHg 75%
    12:00 +7°C° 0.1 mm 5 mps 740 mmHg 75%
    13:00 +8°C° 0.1 mm 5 mps 740 mmHg 74%
    14:00 +8°C° 0 mm 5 mps 740 mmHg 75%
    15:00 +7°C° 0 mm 4 mps 740 mmHg 76%
    16:00 +7°C° 0 mm 4 mps 740 mmHg 78%
    17:00 +6°C° 0 mm 4 mps 740 mmHg 79%
    18:00 +6°C° 0 mm 4 mps 740 mmHg 80%
    19:00 +6°C° 0 mm 4 mps 740 mmHg 81%
    20:00 +5°C° 0 mm 3 mps 739 mmHg 82%
    21:00 +5°C° 0 mm 3 mps 739 mmHg 83%
    22:00 +5°C° 0 mm 3 mps 739 mmHg 83%
    23:00 +5°C° 0.1 mm 3 mps 739 mmHg 84%

    Day after tomorrow, 26 January, Friday

    Time Temperature Precipitation Wind Pressure Humidity
    00:00 +5°C° 0.1 mm 3 mps 739 mmHg 84%
    01:00 +4°C° 0.1 mm 3 mps 739 mmHg 84%
    02:00 +4°C° 0.2 mm 3 mps 739 mmHg 84%
    03:00 +4°C° 0.2 mm 3 mps 738 mmHg 84%
    04:00 +4°C° 0.2 mm 3 mps 738 mmHg 83%
    05:00 +5°C° 0.1 mm 2 mps 738 mmHg 85%
    06:00 +5°C° 0.1 mm 2 mps 739 mmHg 87%
    07:00 +4°C° 0.1 mm 2 mps 739 mmHg 88%
    08:00 +4°C° 0.3 mm 2 mps 739 mmHg 89%
    09:00 +5°C° 0.3 mm 2 mps 740 mmHg 89%
    10:00 +5°C° 0.3 mm 2 mps 740 mmHg 89%
    11:00 +5°C° 0.5 mm 2 mps 740 mmHg 90%
    12:00 +5°C° 0.5 mm 2 mps 740 mmHg 91%
    13:00 +5°C° 0.5 mm 2 mps 741 mmHg 92%
    14:00 +5°C° 0.5 mm 2 mps 741 mmHg 93%
    15:00 +5°C° 0.5 mm 2 mps 741 mmHg 94%
    16:00 +5°C° 0.5 mm 2 mps 742 mmHg 94%
    17:00 +5°C° 0.3 mm 2 mps 742 mmHg 95%
    18:00 +6°C° 0.3 mm 1 mps 743 mmHg 96%
    19:00 +5°C° 0.3 mm 1 mps 743 mmHg 97%
    20:00 +5°C° 0.2 mm 1 mps 744 mmHg 97%
    21:00 +5°C° 0.2 mm 1 mps 744 mmHg 97%
    22:00 +5°C° 0.2 mm 1 mps 745 mmHg 97%
    23:00 +5°C° 0.2 mm 1 mps 745 mmHg 97%

    27 January, Saturday

    Time Temperature Precipitation Wind Pressure Humidity
    00:00 +5°C° 0.2 mm 1 mps 745 mmHg 97%
    01:00 +5°C° 0.2 mm 1 mps 746 mmHg 97%
    02:00 +5°C° 0.1 mm 1 mps 746 mmHg 97%
    03:00 +4°C° 0.1 mm 1 mps 747 mmHg 96%
    04:00 +4°C° 0.1 mm 1 mps 747 mmHg 96%
    05:00 +4°C° 0 mm 1 mps 747 mmHg 96%
    06:00 +4°C° 0 mm 1 mps 748 mmHg 96%
    07:00 +4°C° 0 mm 1 mps 748 mmHg 96%
    08:00 +4°C° 0 mm 1 mps 749 mmHg 95%
    09:00 +4°C° 0 mm 1 mps 750 mmHg 93%
    10:00 +5°C° 0 mm 1 mps 750 mmHg 92%
    11:00 +5°C° 0 mm 1 mps 751 mmHg 89%
    12:00 +6°C° 0 mm 1 mps 751 mmHg 86%
    13:00 +6°C° 0 mm 1 mps 751 mmHg 83%
    14:00 +6°C° 0 mm 1 mps 752 mmHg 83%
    15:00 +5°C° 0 mm 0 mps 752 mmHg 84%
    16:00 +5°C° 0 mm 0 mps 752 mmHg 84%
    17:00 +5°C° 0 mm 0 mps 753 mmHg 85%
    18:00 +5°C° 0 mm 1 mps 753 mmHg 86%
    19:00 +5°C° 0 mm 1 mps 754 mmHg 88%
    20:00 +4°C° 0 mm 1 mps 754 mmHg 89%
    21:00 +3°C° 0 mm 1 mps 754 mmHg 89%
    22:00 +3°C° 0 mm 1 mps 755 mmHg 90%
    23:00 +3°C° 0 mm 1 mps 755 mmHg 90%

    28 January, Sunday

    Time Temperature Precipitation Wind Pressure Humidity
    00:00 +2°C° 0 mm 2 mps 755 mmHg 90%
    01:00 +1°C° 0 mm 2 mps 755 mmHg 90%
    02:00 +1°C° 0 mm 2 mps 755 mmHg 90%
    03:00 +1°C° 0 mm 2 mps 755 mmHg 90%
    04:00 +1°C° 0 mm 2 mps 755 mmHg 90%
    05:00 +1°C° 0 mm 2 mps 755 mmHg 90%
    06:00 +1°C° 0 mm 2 mps 755 mmHg 89%
    07:00 0°C° 0 mm 3 mps 755 mmHg 89%
    08:00 +1°C° 0 mm 3 mps 755 mmHg 86%
    09:00 +2°C° 0 mm 3 mps 756 mmHg 82%
    10:00 +3°C° 0 mm 4 mps 756 mmHg 79%
    11:00 +4°C° 0 mm 4 mps 756 mmHg 74%
    12:00 +5°C° 0 mm 4 mps 755 mmHg 70%
    13:00 +6°C° 0 mm 5 mps 755 mmHg 66%
    14:00 +6°C° 0 mm 4 mps 755 mmHg 68%
    15:00 +5°C° 0 mm 4 mps 755 mmHg 70%
    16:00 +5°C° 0 mm 4 mps 755 mmHg 72%
    17:00 +5°C° 0 mm 4 mps 755 mmHg 74%
    18:00 +4°C° 0 mm 4 mps 755 mmHg 77%
    19:00 +3°C° 0 mm 4 mps 755 mmHg 79%
    20:00 +3°C° 0 mm 4 mps 755 mmHg 79%
    21:00 +3°C° 0 mm 4 mps 755 mmHg 80%
    22:00 +4°C° 0 mm 4 mps 755 mmHg 80%
    23:00 +3°C° 0 mm 5 mps 755 mmHg 81%

    29 January, Monday

    Time Temperature Precipitation Wind Pressure Humidity
    00:00 +3°C° 0 mm 5 mps 755 mmHg 81%
    01:00 +3°C° 0 mm 5 mps 755 mmHg 82%
    02:00 +3°C° 0 mm 5 mps 754 mmHg 83%
    03:00 +3°C° 0 mm 5 mps 754 mmHg 84%
    04:00 +3°C° 0 mm 5 mps 754 mmHg 84%
    05:00 +3°C° 0 mm 5 mps 754 mmHg 86%
    06:00 +3°C° 0 mm 5 mps 754 mmHg 87%
    07:00 +3°C° 0 mm 5 mps 753 mmHg 88%
    08:00 +3°C° 0 mm 5 mps 753 mmHg 87%
    09:00 +4°C° 0 mm 6 mps 753 mmHg 86%
    10:00 +4°C° 0 mm 6 mps 753 mmHg 84%
    11:00 +5°C° 0 mm 6 mps 753 mmHg 83%
    12:00 +5°C° 0 mm 6 mps 753 mmHg 82%
    13:00 +7°C° 0 mm 6 mps 752 mmHg 81%
    14:00 +7°C° 0 mm 6 mps 752 mmHg 82%
    15:00 +7°C° 0 mm 6 mps 752 mmHg 83%
    16:00 +7°C° 0 mm 6 mps 752 mmHg 84%
    17:00 +7°C° 0 mm 6 mps 752 mmHg 84%
    18:00 +7°C° 0 mm 5 mps 752 mmHg 85%
    19:00 +7°C° 0 mm 5 mps 751 mmHg 86%
    20:00 +6°C° 0 mm 5 mps 751 mmHg 87%
    21:00 +6°C° 0 mm 5 mps 751 mmHg 87%
    22:00 +6°C° 0 mm 5 mps 751 mmHg 88%
    23:00 +6°C° 0 mm 5 mps 751 mmHg 88%
    Show more